FW9594 Weather Reports


time (UTC)temp
C
wind
direction
speed
KPH
gust
KPH
rain 1hr
cm
rain 24hr
cm
rain mn
cm
humidity
%
barometer
mb
20260906224129 39 109 1.6 4.8 0.00 0.00 0.00 37 1010.1
20260906223130 39 179 0.0 4.8 0.00 0.00 0.00 37 1010.1
20260906222128 38 293 0.0 9.7 0.00 0.00 0.00 36 1010.1
20260906221129 38 193 1.6 6.4 0.00 0.00 0.00 39 1010.2
20260906220128 38 204 3.2 6.4 0.00 0.00 0.00 37 1010.3
20260906215129 39 107 3.2 8.0 0.00 0.00 0.00 37 1010.2
20260906214129 39 166 1.6 3.2 0.00 0.00 0.00 36 1010.3
20260906213603 39 56 0.0 6.4 0.00 0.00 0.00 38 1010.6
20260906212129 39 44 1.6 8.0 0.00 0.00 0.00 40 1010.8
20260906211129 39 52 0.0 8.0 0.00 0.00 0.00 41 1010.8
20260906210128 39 147 1.6 6.4 0.00 0.00 0.00 39 1010.9
20260906205128 38 152 1.6 4.8 0.00 0.00 0.00 39 1011.2
20260906204606 38 142 3.2 6.4 0.00 0.00 0.00 39 1011.3
20260906203608 38 87 1.6 4.8 0.00 0.00 0.00 40 1011.4
20260906202125 38 120 3.2 6.4 0.00 0.00 0.00 41 1011.5
20260906201126 37 51 3.2 9.7 0.00 0.00 0.00 42 1011.5
20260906200124 37 55 3.2 8.0 0.00 0.00 0.00 45 1011.7
20260906195122 38 59 3.2 6.4 0.00 0.00 0.00 39 1011.7
20260906194122 38 102 1.6 8.0 0.00 0.00 0.00 41 1011.8
20260906193120 38 214 1.6 6.4 0.00 0.00 0.00 41 1011.9
20260906192118 38 100 3.2 6.4 0.00 0.00 0.00 42 1012.0
20260906191116 38 72 1.6 8.0 0.00 0.00 0.00 40 1012.2
20260906190115 38 173 1.6 6.4 0.00 0.00 0.00 44 1012.2
20260906185114 38 45 1.6 9.7 0.00 0.00 0.00 42 1012.3
20260906184114 38 107 1.6 6.4 0.00 0.00 0.00 42 1012.5
20260906183112 37 178 3.2 6.4 0.00 0.00 0.00 43 1012.6
20260906182110 37 52 1.6 8.0 0.00 0.00 0.00 43 1012.6
20260906181110 37 135 0.0 9.7 0.00 0.00 0.00 46 1012.9
20260906180108 36 102 1.6 6.4 0.00 0.00 0.00 47 1012.9
20260906175106 35 114 1.6 6.4 0.00 0.00 0.00 49 1013.0
20260906174549 35 44 1.6 8.0 0.00 0.00 0.00 48 1013.2
20260906173102 36 4 3.2 6.4 0.00 0.00 0.00 49 1013.6
20260906172554 35 157 3.2 6.4 0.00 0.00 0.00 51 1013.6
20260906171102 35 93 1.6 8.0 0.00 0.00 0.00 51 1013.7
20260906170544 35 106 0.0 6.4 0.00 0.00 0.00 53 1013.7
20260906165101 34 155 1.6 3.2 0.00 0.00 0.00 52 1013.8
20260906164603 34 0 1.6 3.2 0.00 0.00 0.00 55 1014.0
20260906163101 33 244 0.0 4.8 0.00 0.00 0.00 57 1014.0
20260906162101 33 336 0.0 8.0 0.00 0.00 0.00 58 1013.9
20260906161100 33 97 0.0 6.4 0.00 0.00 0.00 58 1013.9
20260906160100 32 292 3.2 6.4 0.00 0.00 0.00 59 1013.9
20260906155057 32 37 1.6 4.8 0.00 0.00 0.00 61 1013.9
20260906154056 32 68 0.0 6.4 0.00 0.00 0.00 59 1013.9
20260906153056 32 254 0.0 4.8 0.00 0.00 0.00 62 1013.7
20260906152541 32 86 0.0 4.8 0.00 0.00 0.00 63 1013.5
20260906151052 32 271 1.6 4.8 0.00 0.00 0.00 62 1013.5
20260906150052 32 97 0.0 0.0 0.00 0.00 0.00 63 1013.4
20260906145050 31 87 0.0 3.2 0.00 0.00 0.00 65 1013.5
20260906144048 31 72 0.0 1.6 0.00 0.00 0.00 67 1013.4
20260906144022 30 171 0.0 1.6 0.00 0.00 0.00 68 1013.3
20260906142045 29 324 0.0 3.2 0.00 0.00 0.00 70 1013.3
20260906141532 28 125 0.0 0.0 0.00 0.00 0.00 72 1013.5
20260906140044 28 179 0.0 0.0 0.00 0.00 0.00 76 1013.5
20260906135042 27 179 0.0 0.0 0.00 0.00 0.00 76 1013.5
20260906134040 27 210 0.0 0.0 0.00 0.00 0.00 78 1013.6
20260906133041 27 210 0.0 0.0 0.00 0.00 0.00 78 1013.5
20260906132038 26 102 0.0 0.0 0.00 0.00 0.00 80 1013.4
20260906131513 26 102 0.0 0.0 0.00 0.00 0.00 82 1013.6
20260906130037 25 259 0.0 0.0 0.00 0.00 0.00 83 1013.3
20260906125036 25 259 0.0 0.0 0.00 0.00 0.00 84 1013.2
20260906124036 25 259 0.0 0.0 0.00 0.00 0.00 85 1013.2
20260906123040 25 259 0.0 0.0 0.00 0.00 0.00 84 1013.1
20260906122033 25 259 0.0 0.0 0.00 0.00 0.00 84 1013.1
20260906121030 25 259 0.0 0.0 0.00 0.00 0.00 84 1012.9
20260906120038 25 259 0.0 0.0 0.00 0.00 0.00 84 1012.8
20260906115031 25 259 0.0 0.0 0.00 0.00 0.00 83 1012.8
20260906114510 25 259 0.0 0.0 0.00 0.00 0.00 83 1012.8
20260906113035 25 259 0.0 0.0 0.00 0.00 0.00 83 1012.7
20260906112030 25 259 0.0 0.0 0.00 0.00 0.00 83 1012.6
20260906111029 25 259 0.0 0.0 0.00 0.00 0.00 82 1012.5
20260906110033 25 259 0.0 0.0 0.00 0.00 0.00 81 1012.5
20260906105029 25 259 0.0 0.0 0.00 0.00 0.00 81 1012.3
20260906104030 25 259 0.0 0.0 0.00 0.00 0.00 81 1012.2
20260906103036 25 259 0.0 0.0 0.00 0.00 0.00 81 1012.2
20260906102512 25 259 0.0 0.0 0.00 0.00 0.00 80 1012.3
20260906101031 26 259 0.0 0.0 0.00 0.00 0.00 79 1012.2
20260906100035 26 259 0.0 0.0 0.00 0.00 0.00 80 1012.1
20260906095032 26 259 0.0 0.0 0.00 0.00 0.00 79 1011.9
20260906094031 26 259 0.0 0.0 0.00 0.00 0.00 77 1011.8
20260906093032 26 259 0.0 0.0 0.00 0.00 0.00 77 1011.8
20260906092031 26 259 0.0 0.0 0.00 0.00 0.00 76 1011.9
20260906091509 26 259 0.0 1.6 0.00 0.00 0.00 76 1011.6
20260906090514 26 213 0.0 1.6 0.00 0.00 0.00 76 1011.6
20260906085032 26 237 0.0 1.6 0.00 0.00 0.00 77 1011.6
20260906084034 26 219 0.0 0.0 0.00 0.00 0.00 77 1011.6
20260906083507 26 219 0.0 0.0 0.00 0.00 0.00 77 1011.6
20260906082032 26 141 0.0 0.0 0.00 0.00 0.00 77 1011.5
20260906081042 26 226 0.0 0.0 0.00 0.00 0.00 77 1011.5
20260906080037 26 226 0.0 0.0 0.00 0.00 0.00 77 1011.5
20260906075032 26 113 0.0 0.0 0.00 0.00 0.00 77 1011.6
20260906074516 26 102 0.0 0.0 0.00 0.00 0.00 77 1011.6
20260906073508 26 102 0.0 0.0 0.00 0.00 0.00 76 1011.8
20260906072509 27 102 0.0 0.0 0.00 0.00 0.00 76 1011.9
20260906071034 27 102 0.0 0.0 0.00 0.00 0.00 75 1012.0
20260906070036 27 102 0.0 0.0 0.00 0.00 0.00 74 1012.0
20260906065031 27 102 0.0 0.0 0.00 0.00 0.00 74 1011.9
20260906064502 27 102 0.0 0.0 0.00 0.00 0.00 74 1012.0
20260906063032 27 102 0.0 0.0 0.00 0.00 0.00 74 1011.9
20260906062032 27 102 0.0 0.0 0.00 0.00 0.00 73 1012.0
20260906061031 27 102 0.0 0.0 0.00 0.00 0.00 72 1011.9
20260906060033 28 102 0.0 0.0 0.00 0.00 0.00 71 1012.0
20260906055504 28 102 0.0 0.0 0.00 0.00 0.00 70 1012.0
20260906054033 28 102 0.0 0.0 0.00 0.00 0.00 69 1011.9
20260906053032 28 102 0.0 0.0 0.00 0.00 0.00 68 1012.0
20260906052031 28 102 0.0 1.6 0.00 0.00 0.00 68 1012.0
20260906051031 28 183 0.0 1.6 0.00 0.00 0.00 67 1012.1
20260906050522 28 199 0.0 4.8 0.00 0.00 0.00 67 1012.1
20260906045034 28 274 0.0 1.6 0.00 0.00 0.00 66 1012.0
20260906044032 29 165 0.0 0.0 0.00 0.00 0.00 66 1012.0
20260906043032 29 240 0.0 1.6 0.00 0.00 0.00 65 1012.0
20260906042511 29 158 0.0 0.0 0.00 0.00 0.00 64 1011.8
20260906041040 30 158 0.0 1.6 0.00 0.00 0.00 63 1011.9
20260906040030 30 196 0.0 1.6 0.00 0.00 0.00 62 1011.8
20260906035031 30 131 0.0 1.6 0.00 0.00 0.00 61 1011.9
20260906034518 30 210 0.0 3.2 0.00 0.00 0.00 60 1012.0
20260906033036 30 83 0.0 1.6 0.00 0.00 0.00 60 1011.9
20260906032033 30 237 0.0 1.6 0.00 0.00 0.00 60 1011.9
20260906031042 30 185 0.0 4.8 0.00 0.00 0.00 60 1011.9
20260906030035 30 178 0.0 3.2 0.00 0.00 0.00 59 1012.0
20260906025030 31 216 0.0 4.8 0.00 0.00 0.00 59 1011.8
20260906024035 31 124 0.0 3.2 0.00 0.00 0.00 58 1011.8
20260906023036 31 133 0.0 3.2 0.00 0.00 0.00 58 1011.6
20260906022031 31 141 0.0 4.8 0.00 0.00 0.00 58 1011.3
20260906021035 31 133 0.0 4.8 0.00 0.00 0.00 57 1011.2
20260906020043 32 134 1.6 8.0 0.00 0.00 0.00 56 1011.2
20260906015043 32 128 1.6 4.8 0.00 0.00 0.00 55 1011.1
20260906014030 32 111 1.6 6.4 0.00 0.00 0.00 53 1011.0
20260906013030 33 183 0.0 8.0 0.00 0.00 0.00 51 1010.7
20260906012040 33 182 0.0 0.0 0.00 0.00 0.00 48 1010.3
20260906011524 33 123 0.0 1.6 0.00 0.00 0.00 46 1010.1
20260906010032 34 134 0.0 0.0 0.00 0.00 0.00 45 1010.1
20260906005035 35 134 0.0 1.6 0.00 0.00 0.00 43 1010.1
20260906004031 35 134 0.0 1.6 0.00 0.00 0.00 42 1010.1
20260906003034 36 155 0.0 0.0 0.00 0.00 0.00 41 1010.1
20260906002041 37 96 0.0 1.6 0.00 0.00 0.00 39 1010.0
20260906001027 38 182 0.0 4.8 0.00 0.00 0.00 38 1010.0
20260906000031 38 109 0.0 1.6 0.00 0.00 0.00 39 1009.9
20260905235033 38 154 0.0 3.2 0.00 0.00 0.00 38 1009.9
20260905234033 38 72 0.0 4.8 0.00 0.00 0.00 36 1009.8
20260905233028 39 210 0.0 1.6 0.00 0.00 0.00 36 1009.8
20260905232038 38 104 1.6 3.2 0.00 0.00 0.00 36 1009.9
20260905231029 39 134 0.0 1.6 0.00 0.00 0.00 37 1009.8
20260905230029 39 123 1.6 4.8 0.00 0.00 0.00 35 1009.8
20260905225033 39 231 0.0 4.8 0.00 0.00 0.00 36 1009.9